Simultaneous Nadir Overpasses (SNOs) Predictions

Prediction of SNOs between AQUA and METOP-B Satellite Orbit:

Table of predicted SNOs for the next 14.0 days since TLE Epoch: 1/15/2016
Index Date (AQUA) Time (AQUA) Lat,Lon (AQUA) SZA (AQUA ) Date (METOP-B) Time (METOP-B) Lat,Lon (METOP-B) SZA (METOP-B ) Distance(km) Time Diff (sec)
1 01/18/2016 09:26:16 73.80, 32.68 94.48 01/18/2016 09:25:10 73.78, 32.74 94.47 3.34 66
2 01/18/2016 10:15:43 -73.87,-159.82 85.46 01/18/2016 10:15:50 -73.87,-159.71 85.46 3.20 7
3 01/18/2016 11:05:14 74.05, 7.39 94.74 01/18/2016 11:06:25 74.10, 8.18 94.75 24.59 71
4 01/21/2016 05:00:31 73.79, 99.14 93.89 01/21/2016 04:59:29 73.80, 99.20 93.91 1.88 62
5 01/21/2016 05:49:58 -73.86, -93.36 86.05 01/21/2016 05:50:10 -73.84, -93.37 86.07 1.88 12
6 01/21/2016 06:39:32 74.20, 73.49 94.32 01/21/2016 06:40:42 74.22, 74.89 94.27 42.38 70
7 01/24/2016 00:34:47 73.81, 165.55 93.27 01/24/2016 00:33:49 73.81, 165.65 93.29 3.15 58
8 01/24/2016 01:24:14 -73.87, -26.94 86.67 01/24/2016 01:24:30 -73.86, -26.92 86.68 1.09 16
9 01/24/2016 02:13:51 74.37, 139.53 93.87 01/24/2016 02:14:59 74.38, 141.71 93.79 65.32 68
10 01/26/2016 20:09:02 73.78,-127.96 92.57 01/26/2016 20:08:10 73.78,-128.03 92.58 2.16 52
11 01/26/2016 20:58:29 -73.84, 39.55 87.38 01/26/2016 20:58:50 -73.87, 39.52 87.35 3.40 21
12 01/26/2016 21:48:11 74.61,-154.60 93.45 01/26/2016 21:49:15 74.59,-151.33 93.30 96.51 64
13 01/29/2016 15:43:16 73.78, -61.52 91.84 01/29/2016 15:42:29 73.79, -61.60 91.86 2.68 47
14 01/29/2016 16:32:44 -73.89, 105.88 88.06 01/29/2016 16:33:09 -73.88, 105.95 88.07 2.34 25




NCC Satellite Simultaneous Nadir Overpasses (SNOs) Prediction Service
